Location: Edoum�
(0.9447°N, 10.6482°E)
Time: 23:08:19
(UTC+00:00)

STARLINK-1167 - Pass Details

Date: 07 June 2020
Orbit: 549 x 550 km, 53.0° (Epoch: 10 July)

Event Time Altitude Azimuth Distance (km) Brightness Sun altitude
Exits shadow 04:37:38 - 205° (SSW) 2,353 6.4 -8.5°
Reaches altitude 10° 04:39:00 10° 202° (SSW) 1,815 5.8 -8.2°
Maximum altitude 04:43:02 55° 124° (SE) 657 4.2 -7.3°
Drops below altitude 10° 04:47:04 10° 46° (NE) 1,808 7.6 -6.4°
Sets 04:49:19 0° 41° (NE) 2,699 8.5 -5.9°
